Location: Lugrin
(46.4033°N, 6.6674°E)
Time: 02:21:35
(UTC+00:00)

Lacrosse 5 rocket - Pass Details

Date: 18 September 2020
Orbit: 460 x 636 km, 57.0° (Epoch: 29 October)

Event Time Altitude Azimuth Distance (km) Brightness Sun altitude
Rises 19:46:34 0° 287° (WNW) 2,784 6.3 -22.1°
Reaches altitude 10° 19:49:14 10° 303° (WNW) 1,919 5.2 -22.5°
Maximum altitude 19:52:37 21° 354° (N) 1,359 3.6 -23.0°
Enters shadow 19:55:09 14° 35° (NE) 1,723 3.8 -23.4°
